Location: Unspecified
(0.0000°N, 0.0000°E)
Time: 12:42:38
(UTC+00:00)

Oscar 11 - Visible Passes

Search period start: 19 June 2018 00:00
Search period end: 29 June 2018 00:00
Orbit: 613 x 627 km, 97.6° (Epoch: 18 June)

Date Brightness Start Highest point End Pass type
(mag) Time Alt. Az. Time Alt. Az. Time Alt. Az.
19 Jun 7.6 20:02:03 54° NNW 20:02:03 54° NNW 20:05:26 10° NNW visible
20 Jun 8.6 20:19:25 34° WNW 20:19:25 34° WNW 20:22:21 10° NNW visible
21 Jun 8.9 18:59:37 14° ENE 18:59:37 14° ENE 19:01:50 10° NE visible
21 Jun 9.5 20:36:47 20° WNW 20:36:47 20° WNW 20:38:53 10° NW visible
22 Jun 8.2 19:16:58 24° ENE 19:16:58 24° ENE 19:20:14 10° NNE visible
22 Jun 10.1 20:54:08 11° W 20:54:08 11° W 20:54:41 10° WNW visible
23 Jun 7.5 19:34:20 41° ENE 19:34:20 41° ENE 19:37:58 10° N visible
24 Jun 7.2 19:51:42 63° NNE 19:51:42 63° NNE 19:55:21 10° N visible
25 Jun 7.9 20:09:03 48° WNW 20:09:03 48° WNW 20:12:26 10° NNW visible
26 Jun 8.9 20:26:25 28° WNW 20:26:25 28° WNW 20:29:11 10° NW visible
27 Jun 8.6 19:06:37 18° E 19:06:40 18° ENE 19:09:34 10° NE visible
27 Jun 9.7 20:43:47 16° W 20:43:47 16° W 20:45:28 10° WNW visible
28 Jun 7.9 19:23:59 31° ENE 19:23:59 31° ENE 19:27:37 10° NNE visible
